Tracking 17884 objects as of 2-December-2016
HD Live streaming from Space Station
objects crossing your sky now

USA 139

Track USA 139 now!
USA 139 is classified as:


NORAD ID: 25336
Int'l Code: 1998-029A
Perigee: 35,637.1 km
Apogee: 35,951.4 km
Inclination: 9.1 °
Period: 1,436.1 minutes
Semi major axis: 42165 km
RCS: Unknown
Launch date: May 9, 1998
Source: United States (US)
Launch site: AIR FORCE EASTERN TEST RANGE (AFETR)

ELINT.
Your satellite tracking list
Your tracking list is empty





NASA's NSSDC Master Catalog

Two Line Element Set (TLE):
1 25336U 98029A   16279.03103943 0.00000000  00000-0  00000-0 0    08
2 25336   9.1206 358.8584 0037278 232.5564 127.1131  1.00270000    00
Source of the keplerian elements: McCants